Hourly Weather Kyshyn

Today, 20 October, Tuesday

Time Temperature Precipitation Wind Pressure Humidity
00:00 +3°C° 0 mm 3 mps 749 mmHg 88%
01:00 +3°C° 0 mm 3 mps 749 mmHg 89%
02:00 +2°C° 0 mm 3 mps 750 mmHg 91%
03:00 +2°C° 0 mm 3 mps 750 mmHg 91%
04:00 +2°C° 0 mm 3 mps 750 mmHg 91%
05:00 +2°C° 0 mm 3 mps 749 mmHg 91%
06:00 +2°C° 0 mm 3 mps 750 mmHg 90%
07:00 +3°C° 0 mm 3 mps 750 mmHg 88%
08:00 +3°C° 0 mm 4 mps 751 mmHg 86%
09:00 +5°C° 0 mm 4 mps 751 mmHg 79%
10:00 +6°C° 0 mm 4 mps 751 mmHg 73%
11:00 +8°C° 0 mm 4 mps 751 mmHg 66%
12:00 +8°C° 0 mm 4 mps 751 mmHg 65%
13:00 +8°C° 0 mm 4 mps 751 mmHg 64%
14:00 +10°C° 0 mm 4 mps 752 mmHg 63%
15:00 +9°C° 0 mm 3 mps 751 mmHg 68%
16:00 +8°C° 0 mm 2 mps 751 mmHg 72%
17:00 +8°C° 0 mm 1 mps 751 mmHg 77%
18:00 +8°C° 0 mm 1 mps 751 mmHg 78%
19:00 +7°C° 0 mm 1 mps 751 mmHg 79%
20:00 +7°C° 0 mm 1 mps 752 mmHg 81%
21:00 +7°C° 0 mm 1 mps 751 mmHg 82%
22:00 +6°C° 0 mm 2 mps 751 mmHg 83%
23:00 +5°C° 0 mm 2 mps 751 mmHg 84%

Tomorrow, 21 October, Wednesday

Time Temperature Precipitation Wind Pressure Humidity
00:00 +5°C° 0 mm 2 mps 751 mmHg 85%
01:00 +5°C° 0 mm 2 mps 751 mmHg 85%
02:00 +6°C° 0 mm 2 mps 751 mmHg 86%
03:00 +5°C° 0 mm 3 mps 750 mmHg 82%
04:00 +5°C° 0 mm 3 mps 749 mmHg 78%
05:00 +5°C° 0 mm 4 mps 749 mmHg 74%
06:00 +5°C° 0 mm 4 mps 748 mmHg 73%
07:00 +6°C° 0 mm 4 mps 748 mmHg 73%
08:00 +6°C° 0 mm 4 mps 748 mmHg 73%
09:00 +7°C° 0 mm 4 mps 747 mmHg 70%
10:00 +8°C° 0 mm 4 mps 747 mmHg 66%
11:00 +9°C° 0 mm 5 mps 747 mmHg 63%
12:00 +9°C° 0 mm 5 mps 747 mmHg 63%
13:00 +11°C° 0 mm 4 mps 747 mmHg 62%
14:00 +11°C° 0 mm 4 mps 746 mmHg 62%
15:00 +11°C° 0 mm 4 mps 746 mmHg 64%
16:00 +10°C° 0 mm 3 mps 746 mmHg 67%
17:00 +10°C° 0 mm 3 mps 746 mmHg 70%
18:00 +10°C° 0 mm 3 mps 746 mmHg 70%
19:00 +10°C° 0 mm 3 mps 746 mmHg 70%
20:00 +10°C° 0 mm 2 mps 746 mmHg 71%
21:00 +9°C° 0 mm 2 mps 746 mmHg 72%
22:00 +9°C° 0 mm 2 mps 746 mmHg 72%
23:00 +9°C° 0 mm 2 mps 746 mmHg 73%

Day after tomorrow, 22 October, Thursday

Time Temperature Precipitation Wind Pressure Humidity
00:00 +8°C° 0 mm 2 mps 746 mmHg 74%
01:00 +8°C° 0 mm 2 mps 746 mmHg 75%
02:00 +8°C° 0 mm 2 mps 746 mmHg 76%
03:00 +7°C° 0 mm 3 mps 746 mmHg 76%
04:00 +7°C° 0 mm 3 mps 745 mmHg 76%
05:00 +7°C° 0 mm 3 mps 745 mmHg 75%
06:00 +7°C° 0 mm 3 mps 745 mmHg 76%
07:00 +8°C° 0 mm 3 mps 745 mmHg 76%
08:00 +7°C° 0 mm 4 mps 745 mmHg 76%
09:00 +8°C° 0 mm 4 mps 746 mmHg 73%
10:00 +11°C° 0 mm 4 mps 746 mmHg 69%
11:00 +12°C° 0 mm 4 mps 746 mmHg 65%
12:00 +13°C° 0 mm 4 mps 746 mmHg 64%
13:00 +14°C° 0 mm 4 mps 746 mmHg 64%
14:00 +15°C° 0 mm 4 mps 746 mmHg 63%
15:00 +14°C° 0 mm 4 mps 746 mmHg 68%
16:00 +13°C° 0 mm 3 mps 746 mmHg 73%
17:00 +12°C° 0 mm 3 mps 745 mmHg 77%
18:00 +12°C° 0 mm 3 mps 746 mmHg 78%
19:00 +12°C° 0 mm 3 mps 746 mmHg 79%
20:00 +12°C° 0 mm 3 mps 746 mmHg 80%
21:00 +12°C° 0 mm 3 mps 746 mmHg 80%
22:00 +11°C° 0 mm 3 mps 746 mmHg 80%
23:00 +12°C° 0 mm 2 mps 746 mmHg 80%

23 October, Friday

Time Temperature Precipitation Wind Pressure Humidity
00:00 +12°C° 0 mm 2 mps 746 mmHg 79%
01:00 +12°C° 0 mm 2 mps 746 mmHg 78%
02:00 +12°C° 0 mm 2 mps 746 mmHg 78%
03:00 +10°C° 0 mm 2 mps 745 mmHg 79%
04:00 +10°C° 0 mm 2 mps 745 mmHg 80%
05:00 +9°C° 0 mm 2 mps 745 mmHg 81%
06:00 +9°C° 0 mm 3 mps 745 mmHg 79%
07:00 +9°C° 0 mm 3 mps 744 mmHg 78%
08:00 +9°C° 0 mm 3 mps 744 mmHg 76%
09:00 +11°C° 0 mm 3 mps 744 mmHg 71%
10:00 +13°C° 0 mm 4 mps 744 mmHg 67%
11:00 +14°C° 0 mm 4 mps 744 mmHg 62%
12:00 +15°C° 0 mm 4 mps 743 mmHg 62%
13:00 +15°C° 0 mm 4 mps 743 mmHg 62%
14:00 +17°C° 0 mm 4 mps 743 mmHg 62%
15:00 +16°C° 0 mm 3 mps 742 mmHg 67%
16:00 +14°C° 0 mm 3 mps 742 mmHg 72%
17:00 +13°C° 0 mm 3 mps 742 mmHg 77%
18:00 +12°C° 0 mm 3 mps 742 mmHg 80%
19:00 +12°C° 0 mm 2 mps 742 mmHg 83%
20:00 +12°C° 0 mm 2 mps 742 mmHg 86%
21:00 +10°C° 0 mm 2 mps 742 mmHg 88%
22:00 +10°C° 0 mm 2 mps 742 mmHg 90%
23:00 +10°C° 0 mm 2 mps 742 mmHg 91%

24 October, Saturday

Time Temperature Precipitation Wind Pressure Humidity
00:00 +10°C° 0 mm 2 mps 742 mmHg 93%
01:00 +10°C° 0 mm 2 mps 742 mmHg 94%
02:00 +10°C° 0 mm 2 mps 742 mmHg 95%
03:00 +10°C° 0 mm 2 mps 742 mmHg 95%
04:00 +11°C° 0 mm 1 mps 742 mmHg 95%
05:00 +11°C° 0 mm 1 mps 742 mmHg 95%
06:00 +11°C° 0 mm 1 mps 742 mmHg 94%
07:00 +11°C° 0 mm 1 mps 742 mmHg 93%
08:00 +12°C° 0 mm 1 mps 742 mmHg 92%
09:00 +12°C° 0.1 mm 1 mps 742 mmHg 92%
10:00 +12°C° 0.1 mm 1 mps 742 mmHg 92%
11:00 +12°C° 0.1 mm 2 mps 742 mmHg 93%
12:00 +12°C° 0.2 mm 2 mps 741 mmHg 93%
13:00 +12°C° 0.2 mm 2 mps 741 mmHg 94%
14:00 +12°C° 0.2 mm 2 mps 741 mmHg 95%
15:00 +11°C° 1.3 mm 3 mps 740 mmHg 95%
16:00 +11°C° 1.3 mm 3 mps 740 mmHg 95%
17:00 +11°C° 1.3 mm 4 mps 739 mmHg 96%
18:00 +10°C° 0.6 mm 5 mps 739 mmHg 91%
19:00 +10°C° 0.6 mm 6 mps 739 mmHg 87%
20:00 +10°C° 0.6 mm 7 mps 740 mmHg 83%
21:00 +9°C° 0.1 mm 6 mps 740 mmHg 85%
22:00 +9°C° 0.1 mm 6 mps 740 mmHg 86%
23:00 +9°C° 0.1 mm 6 mps 740 mmHg 88%

25 October, Sunday

Time Temperature Precipitation Wind Pressure Humidity
00:00 +8°C° 0.1 mm 6 mps 740 mmHg 87%
01:00 +8°C° 0.1 mm 6 mps 741 mmHg 86%
02:00 +8°C° 0.1 mm 7 mps 741 mmHg 85%
03:00 +8°C° 0 mm 7 mps 741 mmHg 84%
04:00 +7°C° 0 mm 6 mps 742 mmHg 84%
05:00 +7°C° 0 mm 6 mps 742 mmHg 84%
06:00 +7°C° 0 mm 6 mps 743 mmHg 84%
07:00 +7°C° 0 mm 6 mps 743 mmHg 83%
08:00 +6°C° 0 mm 5 mps 744 mmHg 83%
09:00 +7°C° 0 mm 5 mps 744 mmHg 82%
10:00 +7°C° 0 mm 5 mps 745 mmHg 81%
11:00 +7°C° 0 mm 5 mps 745 mmHg 80%
12:00 +7°C° 0 mm 5 mps 745 mmHg 79%
13:00 +7°C° 0 mm 5 mps 745 mmHg 78%
14:00 +8°C° 0 mm 4 mps 746 mmHg 78%
15:00 +7°C° 0 mm 4 mps 746 mmHg 79%
16:00 +8°C° 0 mm 3 mps 746 mmHg 79%
17:00 +8°C° 0 mm 3 mps 746 mmHg 80%
18:00 +8°C° 0 mm 2 mps 747 mmHg 80%
19:00 +8°C° 0 mm 2 mps 747 mmHg 79%
20:00 +8°C° 0 mm 2 mps 747 mmHg 79%
21:00 +8°C° 0 mm 2 mps 747 mmHg 79%
22:00 +8°C° 0 mm 2 mps 748 mmHg 79%
23:00 +9°C° 0 mm 1 mps 748 mmHg 79%

26 October, Monday

Time Temperature Precipitation Wind Pressure Humidity
00:00 +9°C° 0 mm 1 mps 748 mmHg 80%
01:00 +8°C° 0 mm 1 mps 748 mmHg 80%
02:00 +8°C° 0 mm 1 mps 748 mmHg 81%
03:00 +7°C° 0 mm 1 mps 748 mmHg 84%
04:00 +6°C° 0 mm 1 mps 748 mmHg 88%
05:00 +6°C° 0 mm 1 mps 748 mmHg 91%
06:00 +5°C° 0 mm 0 mps 748 mmHg 91%
07:00 +5°C° 0 mm 0 mps 748 mmHg 91%
08:00 +5°C° 0 mm 0 mps 749 mmHg 91%
09:00 +7°C° 0 mm 0 mps 749 mmHg 84%
10:00 +9°C° 0 mm 1 mps 749 mmHg 77%
11:00 +11°C° 0 mm 1 mps 749 mmHg 70%
12:00 +10°C° 0 mm 2 mps 749 mmHg 68%
13:00 +12°C° 0 mm 2 mps 749 mmHg 65%
14:00 +12°C° 0 mm 2 mps 749 mmHg 63%
15:00 +10°C° 0 mm 2 mps 748 mmHg 68%
16:00 +9°C° 0 mm 2 mps 748 mmHg 74%
17:00 +8°C° 0 mm 2 mps 748 mmHg 79%
18:00 +7°C° 0 mm 2 mps 748 mmHg 81%
19:00 +6°C° 0 mm 2 mps 748 mmHg 83%
20:00 +6°C° 0 mm 2 mps 748 mmHg 85%
21:00 +6°C° 0 mm 2 mps 748 mmHg 86%
22:00 +5°C° 0 mm 2 mps 748 mmHg 86%
23:00 +5°C° 0 mm 2 mps 748 mmHg 87%
Show more

We Need Your Consent

Meteoprog and our Service Providers may store and access personal data such as cookies, device identifiers or other similar technologies on your device and process such data to personalise content and ads, as well as provide social media features and to analyse the traffic.

  • Store and/or access information on your device

    Cookies, device identifiers or other information can be stored or accessed on your device for the purposes indicated above.

  • Personalised ads and content, ad and content measurement, audience insights, and products development

    Ads and content can be personalised based on a profile. More data can be added to better personalise ads and content. Ad and content performance can be measured. Insights about the audience who saw the ads and content can be derived. Such data can be used to develop or improve user’s experience, systems and software.

By clicking ‘I Agree’ you will allow the use of indicated cookies, device identifiers, web beacons or other similar technologies. Your settings can be changed in the browser on your device.

For certain purposes, legitimate interests may be relied on, rather than consent. You can read more about this in our Privacy and Cookie Policy.